Location: Carter Cabin
(41.0271°N, 122.9339°W)
Time: 13:32:09
(UTC+00:00)

Chandra Rocket (1) - Pass Details

Date: 13 April 2024
Orbit: 293 x 10893 km, 28.4° (Epoch: 21 May)

Event Time Altitude Azimuth Distance (km) Brightness Sun altitude
Exits shadow 12:29:52 10° 199° (SSW) 1,700 3.9 -12.4°
Reaches altitude 10° 12:29:54 10° 198° (SSW) 1,693 3.9 -12.4°
Maximum altitude 12:32:24 17° 154° (SSE) 1,759 4.4 -12.0°
Drops below altitude 10° 12:36:41 10° 115° (ESE) 3,195 6.3 -11.2°
Sets 12:43:04 0° 100° (E) 5,765 8.1 -10.1°
